Powrót do katalogu

STARLINK-33852

AktywnyŁącznośćVLEO
NORAD 63644·PAYLOAD·🇺🇸 United States

Wystrzelony Apr 25, 2025 z Cape Canaveral Space Force Station

Loading…

Następne Przeloty (najbliższe 24 godziny)

TLE

ŚwieżeSource: CelesTrak SupGP

Epoka: Sep 15, 2026, 02:44 UTC

1 63644C 25083L   26258.11437500  .00007769  00000+0  28140-3 0  2589
2 63644  43.0039  15.6872 0001506 267.9431 106.8820 15.27575610    12

Śledź STARLINK-33852 w czasie rzeczywistym z AllMySat

Download on the App Store